Tracking 29892 objects as of 21-Nov-2024
HD Live streaming from Space Station
objects crossing your sky now

STARLINK-1722

Track STARLINK-1722 now!
10-day predictions
STARLINK-1722 is classified as:


NORAD ID: 46361
Int'l Code: 2020-062AN
Perigee: 493.2 km
Apogee: 495.3 km
Inclination: 53.1 °
Period: 94.4 minutes
Semi major axis: 6865 km
RCS: Unknown
Launch date: September 3, 2020
Source: United States (US)
Launch site: AIR FORCE EASTERN TEST RANGE (AFETR)
Your satellite tracking list
Your tracking list is empty




NASA's NSSDC Master Catalog

Two Line Element Set (TLE):
1 46361U 20062AN  24326.25001157  .00656753  00000-0  23208-1 0  9996
2 46361  53.0544 295.9328 0001568  78.8207 280.0697 15.26229152233761
Source of the keplerian elements: AFSPC